Reflectivity
-13 -18 29 1 25 -2 16 -20 -17 -20 -20 -20 -20 -20 -20 -20 -20 -20 -20 -20 -20 -20 -20 -20 -4 -20 -20 -20 -20 -20 -20 -20 -20 -20 -20 -20 -20 -20 -20 -20 -20 -20 -20
-20 -15 -3 25 16 -6 -20 -20 -17 -20 -20 -20 -20 -20 -20 -20 -20 -20 -20 -20 -20 -20 -20 -20 -20 -19 -20 -20 -20 -20 -20 -20 -20 -20 -20 -20 -20 -20 -20 -20 -20 -20 -20
32 16 17 27 -8 -12 -20 -20 -20 -20 -20 -18 -20 -20 -20 -20 -20 -20 -20 -20 -20 -20 -20 -20 -20 -20 -20 -20 -20 -20 -20 -20 -20 -20 -20 -20 -20 -20 -20 -20 -20 -20 -20
28 -9 -20 -19 10 -20 16 -20 -20 -20 -20 -20 -20 -20 -20 -20 -20 -20 -20 -20 -20 -20 -20 -20 -20 -20 -20 -20 -20 -20 -20 -20 -20 -20 -20 -20 -20 -20 -20 -20 -20 -20 -20
38 -20 -20 -20 20 -4 11 -20 -14 -17 -3 -20 -20 -20 -20 -20 -20 -20 -20 -20 -20 -20 -20 -20 -20 -20 -20 -20 -20 -20 -20 -20 -20 -20 -20 -20 -20 -20 -20 -20 -20 -20 -20
-8 32 -3 -1 -7 -20 -20 -20 -20 -4 22 23 -20 -20 -20 -20 -20 -20 -20 -20 -20 -20 -20 -20 -20 -20 -20 -20 -20 -20 -20 -20 -20 -20 -20 -20 -20 -20 -20 -20 -20 -20 -20
-5 44 20 -15 4 -20 -20 -4 -20 -2 25 21 -20 -15 -20 -20 -20 -20 -20 -20 -20 -20 -20 -20 -20 -20 -20 -20 -20 -20 -20 -20 -20 -20 -20 -20 -20 -20 -20 -20 -20 -20 -20
21 24 37 14 -18 -20 -5 2 -10 -1 25 6 -17 2 -20 -20 -20 -20 -20 -20 -20 -20 -20 -20 -20 -20 -20 -20 -20 -20 -20 -20 -20 -20 -20 -20 -20 -20 -20 -20 -20 -20 -20
-18 7 31 36 12 -12 -17 -20 -20 -20 19 4 -2 -20 -20 -20 -20 -20 -20 -20 -20 -20 -20 -20 -20 -20 -20 -20 -20 -20 -20 -20 -20 -20 -20 -20 -20 -20 -20 -20 -20 -20 -20
2 46 36 15 3 1 18 -15 -20 -20 6 -20 -17 -17 -10 -17 -20 -20 -20 -20 -20 -20 -20 -20 -20 -20 -20 -20 -20 -20 -20 -20 -20 -20 -20 -20 -20 -20 -20 -20 -20 -20 -20
10 31 45 19 17 6 16 18 -20 25 -9 -7 -10 -20 -20 -20 -20 -20 -20 -20 -20 -20 -20 -20 -20 -20 -20 -20 -20 -20 -20 -20 -20 -20 -20 -20 -20 -20 -20 -20 -20 -20 -20
-3 20 19 15 10 -6 13 30 -2 36 29 -20 -20 -20 -20 -20 -20 -20 -20 -20 -20 -20 -20 -20 -20 -20 -20 -20 -20 -20 -20 -20 -20 -20 -20 -20 -20 -20 -20 -20 -20 -20 -20
-4 17 26 2 -20 -18 -3 28 30 27 28 25 -20 -20 -20 -20 -20 -20 -20 -20 -20 -20 -20 -20 -20 -20 -20 -20 -20 -20 -20 -20 -20 -20 -20 -20 -20 -20 -20 -20 -20 -20 -20
3 7 -13 -12 -20 -20 4 -13 7 16 29 23 -18 -20 -20 -20 -20 -20 -20 -20 -20 -20 -20 -20 -20 -20 -20 -20 -20 -20 -20 -20 -20 -20 -20 -20 -20 -20 -20 -20 -20 -20 -20
-20 -18 -20 -20 -20 7 17 24 -20 12 6 16 2 -3 -17 -20 -20 -20 -20 -20 -20 -20 -20 -20 -20 -20 -20 -20 -20 -20 -20 -20 -20 -20 -20 -20 -20 -20 -20 -20 -20 -20 -20
-20 -20 -20 -20 -20 19 23 3 -15 -13 14 2 19 -20 -9 -20 -20 -20 -20 -20 -20 -20 -20 -20 -20 -20 -20 -20 -20 -20 -20 -20 -20 -20 -20 -20 -20 -20 -20 -20 -20 -20 -20
30 29 -11 -20 -20 14 11 3 -18 5 11 2 -20 -20 16 -20 -20 -15 -20 -20 -20 -20 -20 -20 -20 -20 -20 -20 -20 -20 -20 -20 -20 -20 -20 -20 -20 -20 -20 -20 -20 -20 -20
38 31 36 7 27 0 -20 31 20 21 7 -20 -20 -20 25 -2 -13 -2 -1 -20 -20 -20 -20 -20 -20 -20 -20 -20 -20 -20 -20 -20 -20 -20 -20 -20 -20 -20 -20 -20 -20 -20 -20
25 40 36 30 12 -20 -20 36 28 -3 11 8 -20 -20 -3 -1 -5 -20 -20 -20 -20 -20 -20 -20 -20 -20 -20 -20 -20 -20 -20 -20 -20 -20 -20 -20 -20 -20 -20 -20 -20 -20 -20
19 23 41 33 14 21 -6 -20 0 12 -20 -20 -18 -18 -9 -20 -19 -17 -17 1 0 -20 -20 -20 -20 -20 -20 -20 -20 -20 -20 -20 -20 -20 -20 -20 -20 -20 -20 -20 -20 -20 -20
-16 5 20 20 26 4 28 27 -1 13 -7 24 28 19 -7 25 -18 -20 -20 18 16 -3 -20 -20 -20 -20 -20 -20 -20 -20 -20 -20 -20 -20 -20 -20 -20 -20 -20 -20 -20 -20 -20
-20 -20 23 19 18 16 12 7 17 28 28 25 28 16 2 -5 -20 -20 2 16 20 -20 -20 -20 -20 -20 -20 -20 -20 -20 -20 -20 -20 -20 -20 -20 -20 -20 -20 -20 -20 -20 -20
-20 -20 -11 19 9 22 14 10 24 25 3 24 19 17 11 13 14 -20 -20 -20 -20 -20 -20 -20 -20 -20 -20 -20 -20 -20 -20 -20 -20 -20 -20 -20 -20 -20 -20 -20 -20 -20 -20
-20 -20 -20 -10 42 28 43 26 25 5 13 24 22 22 19 24 19 12 -20 -20 -20 -20 -20 -20 -20 -20 -20 -20 -20 -20 -20 -20 -20 -20 -20 -20 -20 -20 -20 -20 -20 -20 -20
-16 -20 -20 -20 -17 30 6 11 0 -3 13 25 25 15 21 6 -19 -20 -4 14 -20 -20 -20 -20 -20 -20 -20 -20 -20 -20 -20 -20 -20 -20 -20 -20 -20 -20 -20 -20 -20 -20 -20
18 6 -20 -20 -20 -6 19 18 8 4 20 -10 24 16 33 28 -3 18 5 11 16 -17 -20 -15 -20 -20 -20 -20 -20 -20 -20 -20 -20 -20 -20 -20 -20 -20 -20 -20 -20 -20 -20
Wind_Speed
23 18 12 14 7 17 17 15 13 13 7 7 8 8 5 4 4 6 6 5 5 4 2 6 9 8 8 5 7 5 7 4 6 5 4 3 2 5 4 5 5 6 6
23 20 14 11 13 17 17 16 15 14 10 7 7 7 7 5 5 5 5 6 5 5 3 6 5 5 8 9 7 6 4 4 5 5 4 4 1 1 3 5 5 4 5
27 23 19 15 17 17 16 15 15 15 10 11 7 6 7 6 5 5 4 4 5 5 5 7 5 7 9 6 6 5 8 5 4 5 3 3 4 5 2 2 5 4 5
24 25 25 20 18 19 15 16 16 15 9 8 9 10 8 7 5 4 5 4 5 4 5 6 7 8 7 8 5 6 5 6 4 1 2 2 3 3 4 3 4 5 6
27 29 27 25 20 18 17 15 14 14 11 10 11 8 7 6 6 6 8 6 4 5 3 5 7 7 7 7 7 6 5 5 4 4 2 2 1 1 5 4 3 4 5
18 23 27 26 22 18 17 15 15 15 12 7 10 11 8 10 8 8 6 5 3 3 5 5 6 5 9 8 6 6 5 4 2 4 4 2 1 2 1 6 6 7 3
18 20 19 21 21 22 21 17 17 13 9 10 11 11 10 9 11 10 7 7 4 3 4 4 4 4 8 8 6 6 4 2 2 2 2 3 4 3 2 4 5 5 2
19 20 16 20 23 22 22 20 20 19 17 13 11 7 11 8 8 7 7 5 5 5 5 6 5 4 5 6 6 5 4 4 2 5 3 5 3 2 3 1 5 3 3
18 21 19 18 20 22 23 22 21 19 15 12 9 9 9 9 9 8 8 5 6 7 7 7 7 6 6 6 5 3 3 6 5 5 4 5 3 3 4 3 3 3 5
21 11 15 19 16 18 19 20 20 21 19 15 12 11 10 9 10 7 8 8 7 8 7 7 7 7 6 7 6 5 5 6 4 4 6 5 3 3 2 2 3 3 1
25 24 18 18 17 15 14 18 16 15 18 16 14 13 10 9 9 8 7 8 7 9 8 8 7 7 7 7 7 7 7 7 5 5 6 7 5 3 3 3 3 4 4
24 22 20 19 19 17 15 17 16 17 16 15 14 13 10 10 10 8 8 9 8 8 8 9 8 7 6 7 8 8 7 7 7 6 7 6 4 5 4 4 5 4 4
23 19 19 17 16 18 16 20 17 15 15 14 14 13 11 12 11 10 10 11 9 8 9 9 8 8 7 7 7 8 7 7 7 7 7 6 7 4 4 4 4 3 3
22 19 17 18 17 18 19 16 17 19 18 15 15 15 14 14 12 11 11 11 10 9 8 8 7 7 7 8 7 8 7 7 7 7 7 6 7 7 5 4 5 4 4
21 20 19 18 18 17 20 19 15 16 18 19 17 15 13 13 12 12 12 10 10 8 9 8 7 7 7 7 8 8 8 7 7 7 7 7 10 15 9 4 4 4 4
20 23 23 22 20 19 19 19 17 16 15 17 17 16 14 13 13 12 12 10 10 9 9 9 8 8 8 12 12 10 7 8 7 6 8 6 10 10 11 11 14 7 2
14 6 22 21 19 19 18 19 19 18 16 16 17 18 15 14 13 13 13 12 11 10 9 9 9 9 5 16 14 13 7 8 7 7 8 6 6 8 6 7 9 8 7
14 22 14 14 17 13 13 13 17 19 17 16 16 18 17 15 14 14 14 13 11 11 10 10 10 9 7 15 15 11 8 7 8 8 9 6 9 7 8 7 6 6 5
11 10 13 11 14 16 17 13 13 17 17 18 18 18 18 16 16 15 14 12 12 10 10 10 11 10 8 14 16 11 7 7 8 8 8 10 9 13 13 7 8 7 5
14 8 7 7 3 14 15 16 16 15 18 18 17 15 16 16 16 14 13 11 10 11 10 11 10 10 11 14 16 12 5 7 7 7 7 11 11 17 12 6 7 7 7
19 20 11 8 5 8 10 11 9 13 12 10 11 13 15 15 14 12 10 11 11 11 11 11 10 9 12 12 16 17 6 7 7 7 6 5 14 17 15 9 1 7 8
22 23 16 5 6 5 7 6 7 5 7 10 10 11 15 12 12 13 12 12 12 11 11 10 9 9 10 15 15 18 15 4 8 7 6 8 17 13 13 8 6 6 6
19 20 19 12 12 5 6 8 4 7 6 6 6 7 12 12 12 14 12 10 11 9 10 10 9 9 8 8 19 18 19 10 1 3 9 17 19 17 10 9 10 6 4
19 19 21 21 17 15 19 9 5 5 6 6 6 4 7 8 9 10 9 10 10 10 10 10 10 8 8 9 8 10 12 5 4 1 5 11 12 9 7 6 5 4 5
18 19 18 17 18 19 19 18 17 8 6 4 4 7 6 5 5 7 8 9 10 11 10 10 10 10 10 11 14 15 11 10 8 6 6 5 5 6 6 6 6 5 5
18 17 18 18 19 17 17 18 16 14 7 7 4 3 4 4 3 3 3 8 1 11 11 12 10 9 11 16 21 20 17 15 14 6 5 5 7 8 8 8 8 8 8
Wind_Direction
182 181 143 156 158 146 158 156 144 150 144 155 142 141 163 126 124 92 129 154 135 151 170 122 145 152 146 137 117 116 113 94 104 108 106 55 88 105 152 129 122 121 102
169 158 146 151 145 154 158 144 152 156 161 157 156 156 153 146 115 112 131 116 152 157 172 134 161 144 112 116 118 134 120 112 161 150 135 134 99 171 91 107 89 58 106
165 157 142 164 152 159 157 153 158 165 171 154 159 154 125 105 111 125 135 139 150 172 149 147 162 113 118 122 120 134 131 154 216 225 188 151 155 139 112 121 96 88 70
170 163 160 161 164 163 159 160 161 165 168 170 157 143 140 149 154 159 128 138 138 139 147 153 127 124 128 131 141 158 164 147 185 335 274 28 113 172 133 101 117 128 111
182 170 166 165 168 166 163 156 159 158 174 202 141 139 155 147 148 122 129 132 126 147 176 122 122 119 126 136 163 184 178 168 153 174 190 221 147 100 136 136 181 105 121
162 194 173 155 163 159 162 163 166 168 191 182 140 157 163 144 139 139 136 127 128 136 139 144 127 144 136 151 172 170 186 180 182 180 175 157 168 190 114 121 161 141 128
183 173 160 158 157 166 170 167 167 168 194 172 149 185 137 148 139 149 148 142 147 146 142 125 120 148 145 156 151 154 168 166 132 79 60 65 53 22 24 78 132 127 147
150 142 173 173 166 169 167 169 169 167 184 166 163 177 141 144 144 158 148 145 156 142 146 127 137 132 114 134 133 150 159 167 131 114 44 90 65 33 38 77 128 132 150
146 163 184 191 163 168 170 167 170 166 160 163 152 142 142 144 157 172 140 149 142 132 145 147 125 126 124 122 123 131 132 113 107 100 95 102 81 53 38 47 75 134 161
140 157 180 176 176 165 165 166 174 164 161 163 168 158 158 161 156 147 149 141 131 138 139 135 134 139 142 139 125 114 112 114 113 134 125 111 107 99 88 81 66 50 76
155 163 179 168 168 166 156 159 162 166 166 164 166 157 166 160 150 142 141 132 130 141 150 141 145 145 149 143 124 129 131 134 144 130 124 123 129 120 84 70 67 51 66
153 159 157 168 161 158 159 168 170 166 176 164 162 159 162 150 146 154 146 133 144 157 154 145 153 152 151 143 135 145 144 135 137 135 122 136 104 98 98 79 80 77 25
153 159 154 160 158 159 161 169 169 168 172 167 161 160 162 155 158 159 150 146 154 164 154 152 157 156 158 144 144 133 139 146 141 140 138 133 133 137 124 135 126 108 74
156 159 155 162 164 166 170 173 171 167 166 171 167 166 168 163 165 159 151 157 161 161 156 155 159 151 156 148 151 140 144 137 146 140 136 149 140 134 144 117 120 122 109
166 161 160 166 169 171 173 181 171 174 170 166 166 167 171 166 162 158 156 161 161 160 158 154 153 150 161 165 150 147 140 146 133 125 112 79 88 82 64 140 152 154 145
170 166 168 169 171 176 174 173 173 175 173 168 170 163 168 169 168 161 159 159 160 164 161 163 157 164 177 157 147 141 146 143 144 150 106 126 110 89 83 81 74 68 100
4 355 165 167 163 171 171 174 173 173 178 174 169 161 173 175 167 162 162 165 170 165 166 166 161 176 171 151 149 149 157 149 156 152 137 164 141 135 124 101 101 77 72
353 22 319 155 160 152 157 167 171 175 177 179 167 164 173 174 166 170 169 171 170 172 170 169 169 175 156 157 151 161 156 156 167 151 155 163 152 159 152 157 144 140 136
22 358 348 326 166 153 155 166 177 173 177 182 179 173 173 172 167 173 175 174 170 171 174 176 175 175 154 167 159 160 170 163 171 160 169 151 163 161 168 173 160 151 133
10 5 304 297 122 158 160 160 185 182 185 183 182 171 167 174 175 174 175 173 174 174 175 182 183 179 158 176 170 172 183 170 170 171 171 168 164 166 171 191 169 168 170
359 353 355 357 16 147 162 171 173 186 182 179 183 167 167 179 168 171 172 176 175 176 181 183 183 187 160 180 180 186 204 175 175 181 171 155 152 171 177 196 169 185 161
359 354 339 11 25 120 143 151 200 185 168 172 186 181 169 175 164 169 179 178 181 179 183 183 183 191 160 167 192 192 214 166 181 184 181 154 161 171 177 163 160 128 125
4 359 9 40 27 68 103 110 111 89 92 167 173 180 164 166 171 176 176 175 183 186 185 189 186 185 167 172 182 192 214 209 299 199 173 152 166 165 167 163 161 158 160
10 5 12 21 26 33 28 28 111 85 95 125 108 96 149 162 166 172 175 180 189 192 189 193 187 181 186 166 176 196 210 196 183 228 116 155 159 159 152 145 177 189 196
14 15 14 13 14 19 22 17 12 357 142 150 149 149 140 140 141 165 181 194 199 197 194 196 189 182 195 188 171 177 190 198 190 132 115 135 144 163 170 178 188 195 209
13 16 14 15 14 18 19 10 359 8 359 148 163 168 132 137 162 164 136 50 342 200 207 201 195 199 192 160 166 179 181 177 169 169 157 175 178 184 184 190 193 197 201